Temp
9 9 8 11 12 13 13 14 14 14 15 15 16 16 16 16 16 16 16 16 17 17 17 18 18 17 18 17 17 18 19 20 20 19 19 20 20 19 20 19 19 19 19
8 8 9 11 12 12 12 13 13 14 14 15 15 15 15 15 15 15 15 16 16 16 16 17 17 17 17 16 17 18 19 20 20 20 19 19 20 19 18 19 19 18 19
7 8 9 10 11 11 11 12 12 12 13 13 14 14 14 14 14 15 15 15 15 15 15 15 15 16 15 16 17 18 19 20 20 20 20 19 19 19 19 19 19 19 18
6 7 8 9 10 10 10 11 11 11 12 12 12 13 13 13 13 13 13 14 14 14 14 14 15 15 15 16 16 19 19 20 20 20 20 19 18 18 19 18 19 19 18
6 6 7 7 9 9 9 9 10 10 10 10 11 11 12 12 12 12 12 12 13 13 13 14 14 14 14 15 16 18 19 20 20 20 19 19 18 18 18 19 19 19 19
5 6 6 6 7 8 8 8 8 9 9 9 9 10 10 10 11 10 10 11 11 12 12 12 13 13 14 16 17 18 19 19 19 19 18 18 18 18 18 18 18 18 18
6 6 6 5 5 6 6 6 7 7 7 7 7 8 8 8 9 9 9 9 10 10 10 11 12 14 16 16 16 17 18 18 18 19 18 18 17 17 18 17 18 18 18
5 6 6 6 4 4 5 5 5 6 6 6 6 7 7 7 7 7 8 8 9 9 9 11 12 13 15 16 16 16 17 17 17 18 16 16 17 17 17 17 17 17 18
5 5 5 6 5 5 5 5 5 5 5 6 6 7 7 7 7 6 9 7 8 8 9 9 10 11 12 14 15 15 16 16 16 16 15 15 16 16 16 17 17 17 17
4 4 4 5 5 5 6 5 5 5 5 5 5 6 6 8 9 9 9 7 7 8 8 9 9 10 11 11 13 14 14 15 14 15 14 14 15 16 16 16 16 16 16
4 3 4 4 4 5 5 5 5 4 4 7 7 6 6 7 7 7 7 7 6 7 8 8 9 9 11 11 12 12 13 14 13 13 13 13 15 15 16 16 16 16 16
4 3 3 4 4 4 4 4 4 4 4 5 6 5 5 6 5 5 6 7 8 8 7 7 7 9 10 10 11 11 12 12 12 11 11 11 12 13 13 14 14 15 15
3 3 3 3 3 4 3 4 4 4 4 5 5 5 4 5 5 5 6 6 7 7 7 8 8 8 8 8 9 10 10 11 11 10 9 9 10 10 11 12 13 13 13
2 2 2 2 2 2 2 3 3 3 2 3 3 4 3 4 4 4 4 4 5 5 5 6 6 6 7 7 8 9 10 10 10 9 8 7 8 8 9 11 10 11 12
2 1 2 2 2 2 2 2 2 2 2 2 3 3 3 3 3 3 3 3 4 4 4 4 5 5 6 7 7 8 8 8 9 8 7 7 7 7 8 9 9 10 11
2 1 1 2 1 2 2 2 2 2 1 1 2 2 3 3 2 2 3 3 3 3 4 4 4 4 5 6 7 7 7 7 7 6 6 6 6 6 7 7 7 8 9
2 1 1 1 2 1 1 1 1 0 1 0 1 1 2 2 1 1 2 2 2 2 3 3 4 4 4 6 6 7 7 6 5 5 5 5 4 4 5 6 6 7 8
2 1 1 1 1 1 1 1 1 1 1 1 1 1 1 1 1 1 1 1 1 2 3 3 3 3 4 5 6 6 6 5 5 4 4 3 3 3 4 4 5 5 6
2 1 1 1 1 1 1 1 1 1 1 1 1 1 1 1 1 -0 1 1 1 1 2 2 3 3 3 5 5 5 5 4 4 3 3 3 3 3 3 3 3 4 5
2 1 -0 -0 0 0 1 0 0 0 -0 -0 1 1 1 1 1 -0 -0 0 -0 1 1 2 2 2 2 4 5 5 5 4 4 3 3 2 2 2 2 2 2 2 3
1 0 -0 -0 -0 -0 0 1 1 0 -1 -1 -1 -0 -0 -0 0 -0 -1 -1 -1 -1 -0 0 2 2 2 4 5 6 5 4 4 3 3 2 2 2 2 2 2 2 2
1 0 -0 -1 -1 -1 -0 0 0 -0 -1 -1 -2 -2 -2 -1 -1 -1 -1 -2 -2 -1 -1 -1 -1 1 1 1 1 3 3 4 4 4 3 3 1 1 2 1 1 1 1
1 0 -0 -1 -2 -2 -2 -1 -1 -1 -1 -2 -2 -3 -2 -3 -3 -2 -2 -2 -2 -2 -2 -2 -2 -1 -1 0 -0 0 0 0 1 4 3 3 1 1 1 1 1 1 1
1 1 -1 -2 -2 -3 -2 -3 -2 -1 -1 -2 -2 -2 -2 -2 -2 -2 -3 -3 -3 -3 -3 -3 -2 -2 -2 -2 -0 -1 -0 -0 -2 -2 2 2 1 0 1 1 1 1 1
1 -0 -1 -2 -3 -3 -3 -3 -3 -2 -2 -2 -3 -4 -4 -4 -3 -2 -2 -3 -3 -3 -3 -3 -3 -2 -3 -3 -3 -3 -1 -1 -1 -2 -3 -1 -1 0 1 0 1 1 0
-0 -1 -2 -3 -5 -4 -3 -3 -4 -4 -4 -4 -4 -4 -4 -5 -4 -4 -4 -4 -5 -5 -5 -4 -4 -4 -3 -3 -3 -3 -3 -3 -3 -3 -4 -3 -2 -1 -0 0 0 0 -0
Height
872 871 869 869 868 866 865 863 861 859 858 856 855 854 852 851 849 848 847 844 844 842 841 842 840 837 838 836 834 833 832 831 831 832 831 830 829 828 827 827 827 825 825
873 872 871 871 869 868 867 865 864 862 860 859 857 856 855 854 853 852 850 849 847 845 845 845 842 842 841 838 837 835 834 834 833 834 833 833 831 830 829 828 828 828 827
873 872 872 872 870 869 868 867 865 864 862 861 860 859 858 857 855 854 852 851 849 848 848 847 846 845 843 840 840 837 837 837 836 835 835 834 833 831 830 830 829 830 829
873 872 872 873 872 869 869 868 866 865 865 864 862 861 860 860 858 857 855 853 852 851 850 849 847 845 843 842 841 839 839 838 838 838 836 836 834 833 832 831 831 831 831
873 871 872 872 873 870 870 869 869 867 866 866 864 863 862 861 859 858 857 855 854 852 851 850 848 846 844 843 841 840 840 839 840 840 838 838 836 835 833 833 833 832 833
873 872 872 872 874 871 870 871 870 869 868 867 866 864 863 861 860 858 857 856 854 853 853 852 850 848 847 845 843 842 842 842 840 839 839 839 837 837 836 835 833 833 834
873 873 873 871 874 872 869 870 870 869 869 868 866 865 863 863 862 860 857 857 856 854 853 853 851 850 849 848 847 845 844 844 842 841 841 840 839 839 838 836 835 834 835
874 874 874 872 875 873 870 870 871 870 869 868 867 866 865 864 862 860 859 858 857 856 855 854 852 851 850 849 848 847 846 846 845 844 843 842 841 841 839 838 836 835 835
874 876 875 874 876 876 873 872 872 872 872 871 870 869 868 865 864 862 860 860 859 858 857 855 853 852 851 850 850 848 848 848 847 846 844 843 842 841 840 839 838 836 835
875 876 877 876 876 875 875 874 874 875 874 873 872 872 871 868 866 864 863 861 860 860 859 857 855 854 852 852 851 850 849 848 848 847 847 846 845 843 842 840 839 838 837
875 877 877 876 876 876 876 877 876 876 876 872 872 871 872 870 868 867 865 863 862 860 859 858 856 853 852 852 851 851 850 851 850 848 849 849 848 845 843 842 841 840 839
878 878 877 876 876 876 877 877 877 877 876 874 873 873 872 872 871 870 868 866 862 861 860 859 857 855 854 853 853 852 852 852 851 850 850 850 848 846 844 843 843 842 842
878 878 877 878 877 876 878 878 878 877 877 874 874 874 873 871 871 870 868 867 865 862 860 859 858 857 856 855 854 853 854 854 853 852 852 852 850 848 847 846 845 843 842
879 879 879 879 879 878 879 879 879 879 878 876 875 874 875 872 872 871 870 870 867 864 863 862 861 859 857 856 856 855 855 854 854 855 855 853 853 851 850 849 846 845 844
879 879 879 879 878 879 879 881 880 879 879 879 878 877 876 874 875 874 871 872 869 868 865 864 863 861 860 859 858 857 857 856 855 856 855 856 855 854 853 852 849 848 850
879 879 880 879 879 881 881 881 880 881 881 881 880 879 878 876 876 876 874 872 872 870 867 866 864 864 863 861 861 861 860 858 857 857 857 856 857 855 855 854 852 851 850
880 880 880 879 880 881 881 881 882 883 882 883 882 880 879 879 878 878 877 874 873 872 871 868 867 865 863 865 862 863 862 861 860 859 858 859 857 855 857 855 854 852 852
879 879 879 879 879 881 881 881 882 884 883 881 881 881 881 881 880 879 877 876 877 874 871 870 868 867 864 865 864 866 865 864 862 860 860 860 859 857 856 856 855 855 853
876 876 877 879 880 881 881 881 882 882 882 880 881 882 882 882 880 879 879 878 877 875 873 872 871 869 867 865 866 868 866 865 865 864 864 862 861 861 859 857 855 856 854
878 879 880 881 882 882 882 883 884 884 884 882 883 882 882 882 881 881 880 880 879 878 876 873 872 872 870 867 867 868 868 869 867 867 866 865 864 864 863 859 858 855 856
880 881 882 882 882 883 884 885 885 884 884 884 884 883 884 883 881 879 880 880 880 879 878 876 875 873 870 867 868 869 870 871 871 869 869 868 866 865 864 863 861 857 857
880 882 883 883 883 883 884 884 885 885 886 886 886 886 886 884 881 879 879 880 880 880 879 878 876 876 877 874 872 872 872 873 873 872 870 870 868 867 864 864 862 861 858
881 884 886 886 887 886 886 886 885 885 885 886 887 886 885 884 883 882 880 880 881 881 881 881 881 880 880 880 879 876 875 878 876 873 871 870 869 867 865 865 864 861 860
882 884 885 886 888 888 888 888 888 888 887 886 884 883 882 883 883 885 883 881 881 881 882 882 883 883 882 882 881 880 881 882 881 877 871 870 869 867 866 866 865 862 861
882 882 884 885 886 887 888 889 889 889 888 887 887 887 887 885 884 884 884 882 882 883 883 883 884 884 884 884 884 884 883 882 882 881 877 872 868 868 867 866 865 863 860
882 882 884 885 886 886 887 889 890 890 889 889 889 888 888 886 885 886 885 884 882 882 883 883 883 884 884 884 884 884 885 885 884 883 881 876 873 868 866 866 864 863 860
Wind_Speed
8 7 18 22 19 21 22 22 21 22 22 24 26 24 23 24 24 23 24 23 23 24 25 22 21 22 23 22 20 18 18 19 19 18 15 16 16 16 15 14 14 17 17
6 5 18 20 18 19 20 20 21 21 21 22 22 23 23 22 21 22 23 23 22 21 22 21 21 21 21 19 19 17 17 16 19 19 18 12 17 17 16 16 14 14 15
4 5 14 19 19 19 20 21 21 21 21 20 20 19 19 20 20 20 21 21 22 23 21 19 17 17 19 19 18 16 16 16 17 17 15 17 16 15 16 16 15 13 14
5 4 11 17 17 18 19 20 20 20 20 20 19 18 19 19 17 18 19 19 20 20 20 21 20 20 20 19 18 16 15 16 17 16 15 16 18 16 15 15 13 10 11
5 3 7 16 16 17 18 18 19 19 18 19 18 19 19 19 19 19 18 17 17 18 19 19 20 20 20 19 17 15 14 16 16 13 12 14 17 17 14 14 15 12 9
5 5 5 12 15 16 17 17 18 18 18 18 19 18 20 19 21 20 19 20 19 19 18 17 17 18 18 17 16 16 16 17 17 12 14 16 19 15 14 13 13 13 11
5 6 9 10 13 14 17 17 18 17 18 18 18 19 19 19 18 20 20 20 19 19 18 17 16 15 16 16 16 15 14 21 12 9 12 17 21 14 15 14 13 12 11
7 8 9 12 13 15 16 17 18 18 18 19 19 18 18 19 20 19 20 20 20 19 19 17 16 14 13 15 15 15 15 18 13 9 12 20 21 15 14 15 14 14 12
8 8 10 11 12 11 15 16 17 18 18 18 18 18 16 17 18 19 17 20 19 19 19 18 18 17 15 14 13 14 13 17 13 11 14 17 23 14 15 15 15 16 16
8 7 7 7 8 7 9 14 14 16 16 16 16 16 16 16 16 17 17 18 19 18 20 19 19 18 15 16 14 14 13 15 16 10 15 20 18 18 18 15 15 15 16
6 7 6 7 8 8 9 10 11 13 15 14 13 15 13 14 16 15 17 17 18 17 19 18 19 18 14 12 14 13 13 14 17 14 19 22 17 17 18 20 16 16 17
4 5 6 8 8 8 8 9 9 10 11 13 13 14 14 14 15 16 17 18 15 17 16 17 18 16 15 15 14 14 14 13 18 15 17 23 25 26 26 25 21 23 21
4 4 7 8 9 9 11 9 10 10 11 12 14 13 12 14 15 17 18 19 18 19 19 18 17 18 17 17 15 15 17 17 16 16 20 21 24 25 25 24 23 23 25
4 5 6 8 8 11 9 10 10 12 12 13 14 14 14 14 15 17 17 18 20 19 19 19 19 18 17 18 16 17 18 16 19 18 22 22 23 25 22 24 25 24 20
5 4 5 6 8 9 9 9 9 11 12 12 14 14 12 15 16 16 16 17 20 19 20 20 18 18 16 17 16 19 18 16 12 17 17 21 22 24 24 21 24 23 20
5 3 4 6 8 8 9 9 10 10 10 11 13 15 14 14 15 14 15 17 20 20 19 21 18 17 16 15 15 15 20 17 15 15 14 14 19 22 23 22 23 23 21
7 5 3 5 6 6 7 7 8 10 9 10 11 13 15 14 15 13 14 17 18 19 17 19 20 17 15 14 14 14 18 18 19 18 19 20 19 19 21 21 22 22 22
8 6 4 5 5 4 5 6 7 8 8 9 10 11 13 13 14 15 16 18 16 17 17 19 21 21 17 14 14 13 15 16 17 20 22 22 22 23 21 22 20 22 21
8 7 6 6 5 4 5 5 6 6 7 7 7 9 10 11 12 14 15 16 17 17 18 17 20 21 19 12 11 9 15 15 19 18 23 22 23 24 23 22 21 21 22
8 5 5 5 4 4 4 6 6 5 6 5 6 7 8 9 10 10 12 13 16 17 20 17 17 19 24 10 8 6 6 13 16 19 23 21 22 23 22 23 24 23 21
6 6 4 3 2 3 3 4 3 3 4 4 5 7 7 8 9 10 11 13 13 16 17 19 15 19 26 16 7 6 7 11 13 17 17 23 23 22 20 24 24 24 24
8 7 6 6 4 6 7 8 5 3 2 2 5 6 7 8 9 10 11 12 13 13 15 18 20 16 17 25 11 4 1 2 10 12 13 22 21 20 20 22 21 22 24
9 7 7 6 5 6 8 8 8 7 4 3 2 3 6 7 8 9 10 10 11 12 13 15 16 17 15 13 20 9 3 2 6 4 10 14 21 18 18 19 20 20 21
8 8 9 9 8 7 6 5 5 3 4 6 5 2 1 3 5 7 8 8 9 9 11 12 11 13 13 17 6 13 10 8 3 4 5 11 20 17 16 17 20 18 18
9 10 11 11 9 8 6 7 8 5 4 5 4 1 1 2 3 4 4 6 7 7 7 8 10 10 11 10 12 10 5 3 9 2 3 12 18 16 13 15 18 17 16
7 8 10 9 9 9 6 6 7 8 6 6 5 3 3 1 3 3 2 3 4 4 5 5 5 7 6 7 6 7 7 4 5 5 3 10 13 11 11 12 10 12 16
Wind_Direction
354 20 16 20 22 28 31 32 33 35 35 36 42 42 41 40 41 40 40 38 37 38 38 40 41 41 39 38 34 45 51 60 58 45 45 44 44 51 55 56 50 52 53
359 24 37 20 27 31 32 34 35 35 37 39 36 37 38 37 37 37 38 39 40 36 36 34 37 35 35 35 30 42 51 58 52 52 48 41 44 43 45 44 48 51 57
19 47 48 22 32 33 31 34 35 36 36 37 37 33 31 34 33 34 34 34 37 36 36 33 34 32 29 33 31 48 53 57 53 52 44 47 36 41 41 42 42 49 48
40 59 54 25 34 36 34 34 35 38 37 39 40 37 38 37 34 33 33 33 33 32 31 31 30 29 28 29 29 53 58 54 47 51 46 50 40 36 37 42 38 41 46
41 63 54 30 33 41 37 36 35 36 39 38 40 40 40 38 38 37 33 29 29 29 28 27 27 26 26 24 30 49 56 47 51 48 42 37 43 34 38 35 35 39 44
39 48 56 39 33 39 40 38 39 36 36 39 39 38 36 35 34 34 34 31 30 28 26 25 24 25 26 26 32 46 49 41 50 58 50 48 47 37 41 36 40 39 40
23 46 52 54 39 41 43 40 38 38 35 36 37 36 36 34 33 31 31 30 28 25 22 20 18 23 27 30 34 43 49 49 36 36 42 49 44 39 44 43 43 44 41
50 32 46 51 41 41 44 41 37 36 35 34 31 32 33 33 31 29 28 26 24 23 21 19 17 16 24 28 32 41 49 47 31 38 43 47 39 36 44 46 48 46 44
74 63 33 47 48 38 37 42 39 36 34 32 30 28 28 26 25 24 25 24 22 20 19 18 17 18 20 24 35 44 54 54 33 30 30 46 35 34 41 47 48 50 48
89 78 68 62 70 42 39 38 33 33 32 31 30 30 26 17 20 19 19 20 19 17 17 19 19 19 25 22 36 41 50 59 42 33 26 36 34 37 40 41 48 51 52
64 74 63 68 66 57 46 40 29 32 26 29 35 34 34 22 24 15 17 17 18 17 17 17 18 21 28 28 38 39 53 54 45 37 44 36 32 34 40 42 44 49 55
89 58 63 62 63 59 58 46 42 35 30 27 38 45 41 25 30 25 21 23 25 27 26 21 21 27 26 27 32 38 47 56 50 43 51 41 41 41 44 47 46 47 45
104 76 59 53 53 61 54 46 45 45 35 34 38 50 46 39 36 31 25 25 30 35 32 30 32 31 31 27 35 43 48 51 51 49 44 42 37 37 36 37 39 43 39
123 78 65 62 56 59 59 50 51 48 40 38 40 45 48 45 42 33 27 23 25 32 32 28 32 28 33 30 34 50 48 54 67 51 55 49 41 34 33 36 37 33 29
122 91 67 67 55 61 57 55 53 51 46 37 39 43 49 52 43 32 29 28 27 29 32 26 33 27 30 37 41 46 51 51 61 61 59 45 43 40 42 39 39 39 39
130 103 82 71 67 59 58 52 49 54 48 41 38 41 47 54 50 38 32 33 29 28 33 30 32 29 27 47 51 50 52 54 50 54 41 47 43 41 41 39 39 41 43
148 132 93 76 77 69 61 55 59 58 50 48 40 41 42 51 54 42 37 39 33 26 36 36 31 33 36 58 55 51 59 51 54 44 44 47 44 42 38 39 39 40 41
160 166 161 128 112 100 87 74 68 68 57 50 42 42 42 46 54 38 38 40 35 31 37 41 30 23 33 56 52 55 65 59 54 47 42 46 38 37 39 33 38 38 39
177 195 175 158 160 141 111 94 83 79 69 58 47 46 43 43 52 46 35 39 32 32 37 42 36 23 25 60 59 65 61 56 50 51 41 49 38 34 38 35 34 35 33
178 185 197 178 165 149 109 87 73 64 69 56 59 60 52 47 54 59 43 43 37 32 33 38 43 26 26 36 75 85 65 59 52 50 39 50 39 32 40 33 38 33 30
186 204 231 235 197 132 104 102 104 54 46 42 42 50 54 54 61 61 59 45 49 33 32 35 40 32 23 36 64 124 123 69 54 46 38 39 36 29 41 33 35 29 33
202 214 211 232 230 177 181 188 145 175 184 58 42 34 43 45 54 59 62 54 47 39 34 39 36 41 33 27 27 326 79 182 35 45 25 30 31 25 34 32 33 24 27
204 214 214 232 240 230 204 211 189 180 154 110 78 2 38 38 41 55 63 62 59 47 38 40 39 33 26 35 39 43 19 359 336 47 28 14 21 20 29 27 27 19 18
207 209 206 241 244 248 212 183 196 212 209 170 211 169 79 41 36 38 53 61 64 56 50 44 44 43 42 29 26 50 50 49 16 327 342 348 9 9 20 19 15 12 12
199 198 219 241 247 256 237 226 219 210 206 205 195 157 17 9 44 56 72 77 68 60 61 57 48 51 53 48 37 16 17 7 31 329 301 332 350 354 12 3 5 8 1
198 208 239 245 241 256 248 237 215 208 222 216 193 184 228 293 338 22 51 84 85 73 50 63 69 48 56 58 62 45 34 5 355 8 319 323 314 325 344 356 6 8 345